Theta_e
295 295 295 296 299 299 299 301 302 304 306 310 311 311 313 312 321 321 321 321 321 321 321 320 319 308 305 302 303 303 301 294 287 284 285 284 284 284 284 284 286 286 286
294 294 295 296 297 298 299 299 301 300 302 308 309 312 311 312 319 319 319 320 319 318 314 312 301 300 298 297 297 296 296 294 290 284 283 283 283 284 282 283 285 284 285
292 292 294 295 295 295 295 296 298 299 299 305 307 310 310 306 302 316 316 308 311 308 303 300 296 295 292 292 293 292 292 290 288 284 282 283 282 282 281 283 282 280 282
291 290 291 293 292 292 293 293 294 295 295 297 305 304 300 297 296 295 294 292 290 290 291 292 292 292 290 290 290 290 290 288 287 284 282 280 281 282 282 280 280 280 279
288 289 290 290 291 291 290 290 291 292 291 293 294 294 295 294 293 291 290 289 288 287 287 287 286 287 288 290 289 288 288 287 286 283 281 280 279 279 278 280 279 278 277
287 286 288 289 290 289 288 288 289 289 289 289 288 289 289 290 291 291 289 288 288 287 285 286 285 285 287 288 289 289 289 286 284 283 281 279 279 279 279 279 278 277 275
286 287 288 287 286 286 287 287 286 287 288 287 287 287 286 288 290 290 289 287 286 286 286 285 284 284 284 284 285 285 285 286 286 284 280 279 277 278 278 277 276 277 275
285 285 285 285 285 286 286 285 285 285 285 285 285 285 285 286 288 288 286 285 284 283 283 283 282 281 281 281 280 279 278 279 279 278 277 277 277 278 277 276 276 275 274
283 283 283 284 284 285 284 284 284 285 285 284 285 285 285 285 287 287 285 283 282 281 281 281 281 281 283 282 279 278 278 278 281 281 280 280 279 278 277 276 275 275 272
282 283 284 284 284 284 284 284 284 284 284 284 284 284 284 285 287 287 285 282 280 280 280 281 282 282 283 283 279 277 275 275 274 273 273 273 274 274 275 274 274 272 271
282 282 283 284 283 283 283 283 283 283 283 282 282 283 283 284 285 286 285 282 280 280 280 280 282 284 283 283 281 277 275 275 274 272 271 271 271 270 270 271 271 272 271
282 282 282 283 284 284 283 283 283 282 282 282 282 282 282 283 285 285 285 285 284 281 280 280 280 282 282 281 279 279 278 275 273 272 271 270 269 269 268 269 270 270 270
282 282 283 283 283 284 283 282 282 282 282 281 281 281 281 282 283 285 285 285 284 281 281 281 282 282 282 280 279 277 274 273 272 270 269 268 268 268 269 268 268 269 269
283 282 283 283 283 283 283 284 283 282 281 281 280 280 280 280 280 281 281 281 282 281 280 277 277 277 277 275 273 273 273 273 272 270 268 268 268 268 267 268 267 267 266
283 283 284 284 283 283 283 283 283 283 283 282 282 282 281 279 280 282 281 280 278 278 275 274 272 271 270 270 270 270 270 271 269 269 268 267 267 267 266 267 266 265 264
283 283 283 283 283 284 283 282 286 285 285 285 285 283 283 283 283 283 283 282 281 278 274 272 271 271 270 269 269 268 269 268 268 268 268 267 266 266 265 265 265 263 262
282 281 283 282 283 282 283 282 281 283 285 285 285 285 284 283 283 283 283 282 280 278 274 273 272 271 270 270 269 268 267 267 268 267 267 266 266 264 264 263 263 263 262
280 273 282 282 282 282 282 282 282 282 280 280 283 284 284 283 283 283 283 281 274 275 274 273 272 271 270 269 269 268 266 266 266 266 265 265 264 264 262 262 262 258 259
280 282 281 281 280 279 280 280 280 281 281 279 280 283 283 283 283 283 282 276 273 273 273 273 272 271 270 269 268 267 266 265 265 264 263 263 262 262 261 260 259 257 256
277 273 276 280 278 279 280 280 280 280 280 280 280 280 282 280 279 279 279 277 274 272 272 271 271 270 269 268 267 266 264 264 263 263 262 262 261 261 259 257 257 257 256
280 279 274 279 279 279 279 280 279 280 279 279 280 280 282 280 279 279 278 276 274 273 271 270 269 268 268 267 266 265 264 264 263 262 262 261 259 257 258 258 257 255 254
281 279 276 277 279 278 278 279 279 278 279 278 279 279 283 280 281 281 280 278 276 274 272 270 269 268 268 266 265 264 264 263 263 262 261 259 258 257 256 256 255 255 254
281 280 278 277 278 275 275 277 277 277 277 278 278 277 277 280 280 280 279 278 274 271 270 269 268 266 266 266 265 265 263 263 262 263 260 259 257 257 255 255 254 252 253
282 281 279 278 276 275 276 276 275 273 275 275 276 277 277 279 280 279 279 276 272 269 268 267 266 265 264 264 264 264 265 264 263 262 262 260 257 254 255 253 253 252 251
282 281 280 278 277 275 276 276 275 275 275 275 275 275 275 276 276 278 274 269 268 265 264 264 264 263 262 262 263 262 263 262 261 261 260 259 257 256 252 252 252 251 251
282 281 280 279 277 276 276 274 274 274 273 274 274 273 273 272 273 272 268 266 265 264 264 263 262 262 261 262 261 261 259 261 258 259 258 259 257 254 252 251 250 251 252
Wind_Speed
16 16 16 14 14 14 12 13 12 15 18 16 14 15 16 22 19 20 20 19 20 18 16 16 16 10 6 5 5 6 6 6 9 5 6 10 6 8 6 7 4 8 5
16 16 16 15 13 13 12 13 13 12 18 15 13 14 13 16 16 16 18 18 20 19 14 12 12 8 10 9 7 7 7 4 11 18 12 4 8 8 8 6 4 7 5
15 16 15 14 13 13 15 15 15 12 13 15 14 11 15 10 10 14 13 3 5 8 12 14 14 15 12 10 11 12 11 12 12 14 11 6 5 7 8 6 7 6 6
15 15 14 13 12 12 13 14 14 11 12 15 15 2 4 2 5 8 12 16 17 16 13 13 12 11 16 16 14 15 14 14 13 12 10 9 4 5 6 7 6 4 4
15 14 13 12 13 11 13 13 12 8 8 10 6 10 4 1 4 11 13 16 19 21 18 18 17 21 19 17 14 13 15 13 10 10 8 6 6 5 6 4 5 6 4
12 12 12 11 11 11 12 11 10 7 7 5 5 7 8 3 17 21 17 18 19 21 20 19 19 22 24 27 27 22 16 13 11 6 6 8 8 6 5 5 6 6 3
12 11 10 10 10 10 10 9 8 7 5 5 4 5 12 12 22 24 24 16 19 18 19 18 20 13 17 19 28 28 21 18 12 9 12 9 9 5 6 6 4 3 4
11 10 10 10 10 10 9 7 6 6 6 3 6 7 12 15 22 26 27 20 18 18 17 18 19 16 16 18 17 16 15 14 12 11 12 11 9 6 6 5 7 8 6
10 10 10 10 10 8 8 8 7 6 7 7 9 9 10 15 26 22 23 20 18 18 16 15 17 16 23 24 19 20 18 17 22 27 25 22 18 14 8 5 5 4 2
12 10 9 9 8 8 8 7 7 8 10 11 12 12 10 11 26 26 21 14 18 15 15 16 21 18 25 23 17 16 17 13 12 13 11 15 15 14 15 8 3 4 3
10 10 8 7 7 8 9 8 9 9 10 13 14 12 13 13 16 25 24 13 13 13 12 11 10 24 23 22 18 12 15 13 15 10 9 8 8 9 7 8 8 5 3
10 9 8 7 6 6 9 8 10 11 11 14 13 12 10 12 18 25 27 23 20 14 13 11 13 23 23 23 17 24 23 15 8 8 7 6 6 7 7 6 8 8 8
7 7 6 6 6 6 9 9 9 10 10 11 10 10 9 10 11 26 25 25 24 14 10 19 25 25 27 23 23 20 12 7 7 7 7 6 6 6 7 5 6 7 7
8 7 6 6 7 8 7 7 7 8 9 9 9 9 8 9 8 7 9 13 22 17 19 12 16 19 20 17 11 10 7 5 6 7 7 6 5 5 5 4 3 2 2
5 5 6 5 7 8 8 7 8 9 8 7 6 7 7 7 5 12 12 8 9 13 12 8 7 8 8 7 7 7 6 6 6 6 6 5 5 5 5 3 3 1 3
4 4 4 4 5 5 5 7 16 14 16 17 17 10 7 15 16 17 19 21 21 16 6 7 6 6 6 6 6 6 5 6 5 6 6 5 5 4 4 3 3 2 2
2 2 3 3 3 3 3 5 6 9 15 13 12 12 13 15 16 18 20 20 16 10 6 6 5 4 6 6 6 5 4 5 5 5 5 6 5 5 4 3 2 2 2
3 1 0 1 2 3 3 4 3 4 4 5 7 8 11 13 14 16 19 13 4 5 4 5 5 5 5 5 5 6 5 5 4 5 5 5 4 4 3 3 3 2 3
3 1 1 1 2 3 2 3 3 4 5 5 4 7 8 12 13 16 14 4 3 3 3 3 5 5 5 5 6 6 6 5 4 5 4 5 3 2 3 4 4 4 1
3 2 2 3 2 2 2 2 2 2 4 5 4 4 5 6 5 6 5 5 3 3 3 5 4 5 5 6 6 6 6 5 4 4 4 4 4 2 4 3 2 1 1
3 4 3 3 3 3 3 3 3 3 4 2 1 3 10 6 5 5 5 4 4 4 4 5 4 4 5 6 7 6 6 6 5 5 4 4 4 4 3 3 3 2 1
5 4 5 4 3 4 4 3 3 3 2 3 3 4 13 3 4 5 4 5 4 5 5 6 5 5 6 7 7 7 6 6 5 5 5 4 4 4 2 3 2 2 2
6 6 5 4 4 3 3 3 4 4 4 4 4 4 4 6 6 6 6 5 5 5 5 5 7 6 6 5 4 5 7 6 5 5 6 5 3 4 2 3 3 2 2
8 8 7 6 5 5 5 4 3 3 2 3 3 3 4 5 7 7 6 6 5 5 4 5 6 8 7 6 4 4 4 6 6 6 8 6 4 3 3 2 2 2 1
9 8 8 7 7 6 5 4 4 4 4 4 4 3 3 2 2 3 5 4 4 5 6 6 6 9 10 10 8 8 10 12 8 8 5 5 6 6 3 2 1 1 1
8 8 7 6 6 6 6 6 6 6 6 5 5 4 4 4 4 5 6 6 5 5 7 5 7 9 11 8 10 12 12 12 10 9 5 5 5 4 3 3 3 2 4
Wind_Direction
308 301 297 298 300 297 283 277 270 276 268 262 269 271 283 311 214 210 200 194 195 195 196 196 197 158 156 137 131 134 129 117 124 96 103 128 116 120 113 117 101 102 76
308 303 298 299 299 299 295 297 294 295 286 277 280 273 289 285 242 211 205 197 194 193 179 165 149 136 132 128 118 105 124 123 131 128 129 124 116 110 103 93 104 106 102
306 302 299 301 307 313 308 303 293 283 303 296 275 268 277 298 314 203 192 147 165 169 156 150 143 134 123 123 115 111 109 99 113 121 121 114 116 117 112 112 103 103 110
306 306 306 311 315 309 305 299 300 314 305 297 269 20 347 5 36 51 93 101 90 76 71 78 88 107 117 118 106 108 107 109 109 105 108 113 100 120 114 128 138 126 107
316 315 320 311 310 311 302 302 301 314 316 307 325 70 53 349 113 99 98 97 101 98 83 77 74 77 67 96 104 101 101 102 102 103 112 115 124 142 155 166 136 120 88
317 312 304 315 317 312 304 305 307 334 330 306 19 100 104 90 108 111 108 107 100 101 103 100 82 76 78 74 80 85 90 109 109 101 115 126 133 131 144 147 142 148 156
308 311 323 321 313 312 307 311 322 343 329 0 13 97 96 92 109 111 109 103 103 102 103 103 94 90 91 88 79 81 79 92 98 124 125 125 123 127 134 123 122 104 89
318 326 327 322 318 316 320 320 1 350 347 2 55 61 83 89 104 108 98 94 92 90 91 94 104 105 108 106 100 87 81 76 79 86 89 93 93 80 78 95 107 106 112
329 333 333 329 325 329 337 343 16 19 22 28 48 64 95 105 95 90 98 93 91 87 83 88 101 108 107 106 104 102 92 88 87 91 91 90 90 92 100 114 110 140 114
336 338 339 339 335 353 1 358 32 47 44 51 59 57 61 88 103 106 98 97 98 96 91 87 97 107 114 116 106 111 105 109 110 99 91 81 75 69 63 54 45 93 106
339 346 349 352 357 21 31 22 43 61 70 70 68 63 61 59 81 92 98 104 106 107 100 97 99 107 107 105 104 108 114 120 108 98 93 85 77 69 60 56 45 44 71
349 356 4 7 23 33 62 52 47 54 62 65 69 66 62 70 76 87 89 92 97 97 102 105 103 105 100 100 97 105 107 103 100 96 93 90 89 82 67 67 65 64 54
344 2 3 15 34 38 61 61 66 62 60 62 66 70 63 65 67 78 85 88 89 84 92 107 107 103 101 96 99 99 92 93 101 99 96 88 83 96 103 87 74 76 68
355 359 18 23 31 40 43 48 60 62 70 73 72 72 74 71 69 76 82 86 90 94 90 83 99 98 95 95 90 81 79 80 93 97 99 100 107 102 87 82 91 90 94
355 351 21 37 48 55 54 50 55 46 65 85 78 71 75 76 75 97 99 103 107 110 102 92 91 87 89 87 83 80 86 83 85 94 101 106 99 90 86 78 67 44 61
19 11 26 52 47 48 61 66 68 82 78 77 76 83 88 110 109 105 112 122 120 117 98 101 92 91 96 100 97 94 87 95 101 106 111 109 105 107 110 94 82 75 78
64 38 357 1 51 66 68 88 92 70 83 83 89 109 115 125 126 126 131 132 124 111 107 95 93 110 114 105 108 118 107 94 90 107 119 112 118 114 114 97 125 78 68
287 252 278 46 16 36 54 64 73 92 90 75 79 115 122 124 131 134 135 125 71 68 87 111 112 114 113 113 108 109 107 116 119 122 122 114 114 127 124 109 83 48 42
228 227 292 83 77 58 70 84 80 89 98 105 108 118 124 136 142 148 129 114 108 111 101 107 113 112 124 139 129 121 126 132 134 129 130 106 117 122 94 79 86 63 275
211 159 165 139 128 130 114 103 95 106 126 145 147 149 151 137 166 169 132 123 149 137 141 122 119 129 133 127 123 125 109 121 123 133 148 136 109 95 97 118 113 64 78
181 158 179 169 163 172 166 169 157 153 155 167 176 156 178 176 169 174 145 168 147 144 139 125 131 129 120 118 114 126 146 157 159 144 122 106 117 100 75 90 122 117 208
174 172 170 192 183 175 177 169 168 167 167 167 162 166 195 195 186 199 172 182 153 137 143 149 148 144 143 141 143 144 147 143 143 144 123 101 92 94 98 99 176 189 193
174 175 178 188 184 166 170 178 179 182 180 179 169 170 190 192 206 206 204 187 144 146 147 144 133 116 107 119 129 145 148 153 149 130 120 113 133 145 138 169 163 196 201
182 180 181 182 178 181 191 194 190 184 174 169 177 184 185 195 202 206 195 149 147 129 117 110 117 128 131 126 120 119 120 123 122 136 140 141 128 135 144 148 173 197 237
188 182 183 185 183 188 177 179 180 190 192 198 198 188 181 185 210 166 118 116 130 131 126 130 133 140 141 138 136 124 130 124 126 127 123 129 136 144 141 150 168 257 265
193 189 182 176 180 174 177 177 187 190 201 197 193 184 175 170 174 151 149 152 146 137 136 127 135 139 139 137 133 132 136 135 135 139 136 138 142 143 158 176 199 226 245